This is the latest recevied weather packets stored in our database for station/object SQ6RR-12. If no packets are shown the sender has not sent any weather packets the latest 10 day(s).
| Time | Temp. | Humidity | Pressure | Rain* | Wind** | Luminosity | Snow |
|---|---|---|---|---|---|---|---|
| 1777971642 | 25° C | 38% | 1009.1 hPa | 0 mm | - | - | - |
| 1777971366 | 24.44° C | 40% | 1009.1 hPa | 0 mm | - | - | - |
| 1777971097 | 24.44° C | 41% | 1009.2 hPa | 0 mm | - | - | - |
| 1777970807 | 23.89° C | 40% | 1009.3 hPa | 0 mm | - | - | - |
| 1777970547 | 23.89° C | 40% | 1009.3 hPa | 0 mm | - | - | - |
| 1777970287 | 24.44° C | 40% | 1009.4 hPa | 0 mm | - | - | - |
| 1777970002 | 24.44° C | 39% | 1009.4 hPa | 0 mm | - | - | - |
| 1777969722 | 23.89° C | 41% | 1009.4 hPa | 0 mm | - | - | - |
| 1777969462 | 23.33° C | 42% | 1009.5 hPa | 0 mm | - | - | - |
| 1777969212 | 22.78° C | 43% | 1009.6 hPa | 0 mm | - | - | - |
| 1777968946 | 22.78° C | 42% | 1009.6 hPa | 0 mm | - | - | - |
| 1777968672 | 21.67° C | 47% | 1009.8 hPa | 0 mm | - | - | - |
| 1777968386 | 21.67° C | 45% | 1009.8 hPa | 0 mm | - | - | - |
| 1777968102 | 21.11° C | 47% | 1009.9 hPa | 0 mm | - | - | - |
| 1777967831 | 21.67° C | 48% | 1009.9 hPa | 0 mm | - | - | - |
| 1777967557 | 21.67° C | 46% | 1009.9 hPa | 0 mm | - | - | - |
| 1777967286 | 21.11° C | 51% | 1009.9 hPa | 0 mm | - | - | - |
| 1777967017 | 20.56° C | 48% | 1010 hPa | 0 mm | - | - | - |
| 1777966742 | 20° C | 53% | 1010 hPa | 0 mm | - | - | - |
| 1777966482 | 20° C | 56% | 1010 hPa | 0 mm | - | - | - |
| 1777966218 | 19.44° C | 53% | 1010.1 hPa | 0 mm | - | - | - |
| 1777965950 | 19.44° C | 56% | 1010.1 hPa | 0 mm | - | - | - |
| 1777965672 | 19.44° C | 56% | 1010.1 hPa | 0 mm | - | - | - |
| 1777965397 | 19.44° C | 54% | 1010.1 hPa | 0 mm | - | - | - |
| 1777965131 | 19.44° C | 52% | 1010.2 hPa | 0 mm | - | - | - |
* Rain latest hour (hover to see other rain measurements)
** Current wind speed in m/s (hover to see current wind gust speed)